Theta_e
350 346 342 350 351 349 349 348 349 347 345 343 343 344 347 345 347 348 348 346 349 346 348 346 348 348 347 347 345 344 343 344 344 344 344 345 346 346 346 344 342 345 345
349 346 341 350 351 350 349 349 348 347 343 343 343 345 342 344 345 347 348 348 345 347 345 346 348 347 347 347 346 345 344 344 343 343 343 343 343 345 345 345 341 343 346
348 347 340 347 349 350 348 350 349 347 342 341 346 345 344 342 346 347 346 348 344 348 346 347 347 347 346 345 344 343 343 342 340 341 342 343 344 345 345 344 343 340 342
349 348 341 345 347 348 349 348 347 347 341 341 347 345 346 343 343 347 347 343 343 346 347 346 346 346 345 344 343 343 342 339 338 339 341 342 343 344 344 344 344 344 340
349 348 344 340 345 346 345 346 346 346 343 342 346 345 346 346 346 344 343 342 345 345 345 345 343 344 344 342 342 342 338 337 337 338 339 341 342 343 343 342 343 343 343
349 349 347 340 341 345 345 346 346 344 343 343 345 346 346 346 347 343 342 345 345 344 344 344 343 343 342 343 342 339 336 335 336 337 338 340 341 342 342 342 342 342 343
349 348 348 345 341 344 346 347 344 344 344 343 345 344 345 345 345 343 342 345 343 343 343 343 343 343 343 342 340 336 334 333 333 334 337 338 339 341 341 341 341 341 342
348 349 349 348 344 339 345 346 345 346 345 344 344 344 343 344 344 344 344 343 343 343 343 343 342 342 342 340 338 334 333 331 331 331 332 336 339 340 340 339 339 339 340
350 349 349 347 345 341 340 342 343 347 345 344 343 343 341 342 342 343 342 343 343 343 342 341 341 341 339 337 334 330 330 330 329 329 330 333 336 338 338 336 337 337 337
350 350 347 347 346 343 341 342 341 343 343 344 342 341 339 342 340 340 341 342 342 341 341 341 340 340 337 334 332 329 329 328 328 329 329 331 333 335 335 336 335 336 336
348 348 346 346 345 345 343 343 342 342 341 341 340 340 340 341 342 341 341 341 341 340 340 337 337 337 334 332 330 327 326 327 327 327 328 331 333 333 333 331 331 332 332
344 345 346 345 344 345 344 343 342 342 339 340 339 338 338 339 340 339 338 338 340 337 338 335 337 334 329 326 326 325 326 326 327 326 327 327 329 330 329 329 328 328 328
340 342 343 343 343 344 344 343 342 342 340 339 339 338 337 339 338 338 337 338 336 335 335 336 334 329 326 325 325 326 326 325 326 326 327 327 327 328 327 327 327 327 327
336 337 340 341 343 343 342 342 341 340 340 339 338 338 337 338 337 336 337 338 335 335 334 333 332 328 326 325 324 324 325 324 324 326 326 326 326 326 327 327 327 327 327
330 330 328 332 338 341 341 341 340 341 341 339 338 338 337 337 337 335 334 334 334 333 334 332 330 327 325 325 324 323 324 324 324 325 325 325 325 326 326 327 327 326 326
322 322 324 326 330 336 339 340 341 340 339 338 337 337 335 335 333 326 326 329 333 333 333 332 329 327 325 324 324 323 323 323 323 324 324 325 326 327 327 326 326 326 325
319 319 320 324 333 333 336 337 338 339 336 335 335 335 334 332 328 326 325 328 331 332 332 332 329 327 325 324 323 323 323 323 323 323 324 324 325 325 326 325 325 325 324
320 320 320 320 328 335 331 329 333 336 334 335 333 333 334 331 329 327 327 326 327 330 331 332 325 325 324 324 323 323 322 323 323 323 323 324 324 324 324 325 325 324 324
322 321 321 320 321 324 332 330 329 330 331 332 333 332 333 331 330 328 328 325 327 330 330 331 323 324 323 323 322 323 322 322 323 323 323 323 323 323 324 323 323 323 323
322 323 322 321 321 322 327 329 327 326 328 330 333 331 330 330 329 329 326 326 330 328 328 329 323 324 323 323 322 322 322 322 323 323 323 322 322 323 322 322 322 322 322
322 322 323 323 321 320 321 323 326 325 326 327 328 328 329 329 330 325 326 326 328 328 328 328 323 324 322 322 321 321 321 322 322 322 321 321 321 321 321 321 321 321 321
324 325 325 324 321 320 321 322 324 324 325 325 327 328 327 322 327 325 322 325 327 326 326 327 324 321 322 322 321 319 319 319 320 320 320 320 319 319 319 319 319 319 319
324 325 327 325 323 320 320 320 322 325 326 325 327 328 325 322 327 327 323 326 327 327 326 326 322 321 320 321 320 320 317 320 318 319 319 319 318 317 317 317 317 316 315
324 325 326 326 325 326 322 321 322 325 324 328 327 328 329 330 329 328 326 327 328 327 326 325 321 320 320 320 320 320 321 319 318 316 318 318 317 317 317 316 313 313 312
324 324 326 326 325 323 321 322 325 326 327 328 328 328 330 328 329 328 330 327 327 327 326 325 322 320 320 320 319 317 316 320 317 313 313 311 315 316 316 316 316 313 312
323 323 325 327 327 326 325 326 326 327 327 326 326 327 326 327 329 330 330 329 328 327 325 325 323 320 319 320 318 317 316 317 313 314 309 309 311 311 312 314 316 315 313
Wind_Speed
11 18 17 15 14 14 13 12 12 12 11 11 11 10 9 10 9 10 12 13 14 16 16 16 17 17 20 22 23 23 22 22 23 24 24 23 24 24 25 26 30 29 29
17 19 17 16 16 15 12 12 13 11 9 10 11 10 10 9 9 10 11 12 13 16 17 16 16 15 19 20 20 21 21 21 22 24 25 24 24 25 25 26 30 27 29
19 20 19 17 17 15 14 12 12 11 9 10 10 11 10 10 9 10 11 13 13 16 17 18 18 19 19 19 20 21 21 22 22 24 25 24 23 24 24 26 29 28 28
20 22 21 19 18 16 15 14 12 10 9 11 12 10 10 10 11 11 12 13 12 16 17 17 19 19 19 20 21 22 23 23 25 25 25 24 22 24 25 26 26 27 28
22 22 21 20 20 18 16 14 12 11 11 12 11 11 10 11 11 13 13 13 15 16 16 15 19 19 20 20 21 21 23 24 23 23 23 23 23 23 25 26 27 28 30
21 21 21 19 19 18 16 14 12 11 12 12 11 11 11 10 11 13 15 15 16 16 16 16 19 18 20 20 21 21 23 23 23 22 22 23 23 24 23 25 27 29 31
19 21 21 19 18 18 18 15 13 13 13 12 12 11 11 11 11 12 14 15 14 17 17 18 18 19 19 19 20 21 22 22 21 20 20 22 21 22 24 26 26 27 28
19 21 21 19 17 17 17 16 15 14 13 13 12 12 10 11 11 12 13 13 13 17 18 19 19 19 20 19 20 21 20 20 21 19 17 17 20 21 23 25 25 26 27
19 19 18 15 14 15 14 15 16 17 15 13 13 12 12 11 11 11 12 13 13 18 18 19 20 21 21 20 19 21 24 25 24 20 17 16 17 20 22 24 24 24 25
17 13 13 14 15 16 16 16 16 14 15 14 13 13 14 12 12 12 12 13 15 17 19 20 21 23 22 20 20 21 23 24 23 20 18 17 17 19 21 22 23 25 26
15 16 15 16 16 17 17 18 16 15 16 14 13 13 16 15 14 13 13 14 15 16 17 19 22 24 22 20 19 22 22 24 23 20 18 18 18 19 20 21 22 23 25
9 14 15 16 17 18 18 18 17 17 16 17 17 17 17 17 15 15 14 13 15 18 20 22 23 23 22 22 22 22 23 23 21 19 18 18 18 18 20 21 22 23 24
12 12 13 14 14 16 18 18 20 19 18 21 22 19 19 19 18 17 17 16 16 18 22 22 23 23 22 24 24 23 24 22 18 18 16 19 19 18 20 21 22 24 25
15 13 12 12 14 15 15 18 20 21 22 25 24 22 21 22 20 17 15 16 20 20 25 24 24 25 24 23 24 24 22 20 18 18 17 18 19 19 20 21 21 22 24
17 15 14 14 14 15 15 15 17 19 22 25 27 28 28 25 22 18 10 13 20 20 26 24 26 27 24 25 25 24 23 22 18 18 18 18 18 19 19 20 20 21 22
14 14 15 16 16 16 16 16 16 16 18 26 31 33 30 26 18 12 10 20 18 21 24 26 24 27 26 26 25 24 25 22 19 18 18 18 17 18 18 19 19 20 20
13 10 10 18 19 19 18 17 16 17 15 24 30 35 34 31 27 20 20 25 20 23 20 20 21 27 28 27 26 25 24 22 18 18 18 18 17 17 17 18 18 18 18
8 10 11 10 17 22 22 20 18 18 17 23 29 34 37 32 32 30 36 30 21 20 23 12 21 28 32 30 27 27 24 22 20 18 17 17 17 18 16 17 17 17 17
5 6 7 10 13 20 24 23 20 17 18 21 29 33 35 38 34 36 30 24 24 21 24 20 19 27 31 30 27 27 25 22 21 19 18 17 17 16 16 15 16 16 16
4 5 7 10 15 16 21 21 21 17 17 19 25 29 32 32 31 28 26 24 21 21 21 21 23 23 30 33 26 25 23 21 19 19 18 16 16 15 15 15 15 14 14
1 4 6 7 10 17 17 19 18 21 22 22 20 20 22 22 21 24 22 21 25 24 22 24 23 24 21 28 28 20 19 18 18 17 16 16 15 14 13 13 13 13 12
2 2 5 8 8 14 16 15 19 22 23 22 20 16 21 17 23 28 23 28 27 27 26 32 33 24 24 36 22 18 3 3 12 16 16 16 15 14 14 12 12 11 11
3 2 5 5 8 10 12 14 15 17 17 19 19 21 26 22 29 33 30 31 31 30 31 35 36 31 23 26 31 12 3 4 7 13 16 16 16 15 14 13 11 10 9
3 4 5 2 6 10 12 15 16 18 16 14 21 16 18 20 24 31 39 33 31 33 33 40 38 29 27 26 29 16 15 16 4 3 11 16 16 16 16 14 13 11 10
5 6 8 6 1 3 8 11 13 14 9 6 11 14 11 9 11 15 19 29 31 33 38 41 37 29 29 28 26 18 12 18 10 4 3 5 14 16 17 17 14 14 12
6 8 8 6 3 3 7 6 6 9 10 6 3 5 7 7 10 12 17 25 31 35 34 39 41 29 28 27 27 25 20 11 8 10 3 4 9 10 13 14 17 16 16
Wind_Direction
190 173 171 165 165 162 159 149 146 137 127 135 130 118 108 115 120 124 125 124 124 119 115 110 100 95 93 91 88 81 78 74 72 70 70 73 72 69 68 66 64 62 61
173 173 174 168 169 162 159 152 150 147 141 135 136 131 128 125 130 128 127 128 126 123 114 105 95 96 100 94 89 86 83 78 75 74 74 72 71 71 69 68 66 63 61
179 176 175 173 170 168 165 160 156 155 149 147 144 138 137 139 135 135 136 134 133 124 114 105 105 100 99 95 94 89 87 84 80 80 77 72 72 72 70 67 69 66 64
183 178 177 176 175 174 174 175 174 171 164 157 149 147 145 147 143 144 142 135 126 123 113 106 113 108 107 100 98 95 89 87 83 78 76 78 75 75 72 70 69 72 69
181 180 180 182 180 184 183 186 188 184 176 167 155 155 151 149 139 141 145 133 123 125 117 113 117 114 110 109 101 98 95 93 90 82 77 76 82 81 78 75 72 69 71
183 183 181 186 187 186 190 194 194 184 177 171 165 156 155 150 143 141 143 137 130 131 124 118 123 118 112 110 106 105 102 96 91 83 80 76 76 81 83 77 73 70 69
183 185 185 189 190 189 193 191 188 182 178 175 171 164 159 153 148 146 144 144 136 138 131 129 128 121 115 112 109 111 109 102 92 82 77 79 78 79 76 78 75 72 71
189 188 191 192 196 197 192 190 187 187 183 177 176 178 167 164 158 154 152 148 143 144 137 136 132 125 118 116 112 113 110 106 101 88 78 79 81 81 79 79 75 73 71
196 194 195 197 200 199 202 201 194 194 188 183 181 181 178 177 168 162 160 154 149 149 143 139 137 129 123 116 112 114 110 104 100 96 89 81 82 81 79 78 77 77 75
195 191 196 205 204 206 203 212 212 210 204 186 182 181 184 183 176 170 165 160 152 156 148 146 144 133 126 119 115 114 116 112 105 105 99 98 90 83 82 83 82 82 80
190 192 197 204 208 211 211 215 217 217 208 201 187 183 190 185 176 174 172 167 164 156 152 156 144 132 128 122 122 121 115 109 106 105 103 95 93 91 90 90 87 84 83
166 188 195 204 211 212 213 216 216 219 208 204 193 192 190 186 181 175 175 172 164 160 154 149 140 138 138 134 132 125 117 113 110 110 110 109 102 97 95 91 90 87 85
177 189 194 202 210 215 214 218 220 217 209 203 197 196 190 184 179 176 174 169 157 160 159 150 148 149 145 140 134 126 123 118 115 114 114 109 107 103 100 97 94 92 90
189 194 199 205 212 215 220 221 225 223 215 203 194 195 194 186 176 178 182 178 164 166 165 164 163 157 151 146 139 137 131 125 122 120 118 115 113 109 105 100 97 94 92
193 194 204 210 213 214 220 224 226 225 215 208 197 194 197 185 166 166 180 192 173 168 172 170 168 162 156 150 143 140 136 130 129 127 123 122 117 115 111 107 101 96 93
192 199 209 215 217 215 216 220 224 232 223 218 205 198 191 183 165 152 196 234 202 180 173 172 170 165 161 154 148 143 139 135 134 133 128 126 124 118 114 109 105 100 95
201 201 214 220 220 217 218 222 223 225 227 214 206 204 186 187 183 191 196 214 208 186 174 178 166 173 162 157 151 145 142 140 140 139 136 134 132 123 117 112 109 104 100
188 214 216 225 225 224 223 228 227 224 218 213 209 206 197 197 200 205 203 210 211 189 182 180 170 166 163 160 153 148 147 147 148 146 143 142 138 130 124 117 114 110 105
181 201 202 220 234 230 225 226 230 228 228 216 214 210 201 200 207 204 213 205 205 193 187 190 163 164 157 158 156 152 152 153 155 153 152 150 142 137 130 127 121 116 111
217 236 240 244 234 232 232 231 227 231 232 227 217 216 209 210 208 207 215 209 188 192 181 193 165 163 160 159 153 152 153 157 162 162 159 157 153 149 143 138 131 123 118
231 265 261 274 252 230 230 222 218 215 227 229 234 226 213 201 214 208 198 197 189 190 180 177 175 165 161 154 144 139 149 160 167 170 169 167 164 159 155 148 141 136 130
98 358 321 268 247 215 224 232 229 224 232 242 231 212 190 187 223 205 208 208 199 193 181 178 178 166 172 165 157 134 124 122 185 180 178 180 176 170 168 164 158 156 152
97 357 321 262 236 222 228 237 242 238 235 244 221 195 198 205 213 210 208 205 205 202 190 182 179 176 171 171 164 144 129 185 154 205 199 193 191 185 183 182 179 176 174
84 49 19 317 243 245 234 229 236 230 221 229 229 206 206 219 219 212 211 209 200 199 189 183 177 179 180 173 188 179 162 155 157 156 212 210 206 202 200 199 199 198 198
74 46 39 18 344 221 218 219 233 234 211 212 232 217 205 201 214 221 223 214 210 198 189 184 183 180 192 179 180 162 142 156 139 131 135 177 214 216 216 214 214 213 217
84 54 48 31 62 125 183 198 236 236 229 224 212 217 233 225 213 217 224 222 212 207 193 191 187 186 182 187 187 173 160 162 170 149 116 143 188 202 211 214 214 225 227